Flag for Norway Weather past 2 weeks in Arendal, Norway

Now
73 °F

Mild.


Feels Like: 75 °F
Forecast: 58 / 81 °F
Wind: 7 mph from Northeast

Location: Torungen Fyr

Current Time: Jul 24, 2014 at 11:18:15 AM

Latest Report: Jul 24, 2014 at 10:00 AM


Visibility: N/A

Pressure: 30.21 "Hg

Humidity: 75%

Dew point: 65 °F

Location of ArendalLocation

Historic Weather in Arendal — Graph

°F

Arendal temperature yesterday

Maximum temperature yesterday: 76 °F (at 7:00 PM)
Minimum temperature yesterday: 67 °F (at 5:00 AM)
Average temperature yesterday: 73 °F

Past Weeks' High & Low Weather Summary

 TemperatureHumidityPressure
High76 °F (Jul 23, 7:00 PM)95% (Jul 14, 4:00 AM)30.30 "Hg (Jul 14, 4:00 AM)
Low57 °F (Jul 19, 5:00 AM)48% (Jul 16, 12:00 PM)29.56 "Hg (Jul 14, 3:00 AM)
Average67 °F75%30.03 "Hg
* Reported Jul 9 10:00 AM — Jul 24 10:00 AM, Arendal, Weather by CustomWeather, © 2014

Note: Actual official high and low records may vary slightly from our data, if they occured in-between our weather recording intervals... More about our weather records

Advertising

Arendal weather history for previous 24 hours

 ConditionsComfort  
Time TempWeatherWind HumidityBarometerVisibility
10:00 AM
Jul 24
73 °FMild.7 mph75%30.21 "HgN/A
9:00 AM73 °FMild.7 mph72%30.21 "HgN/A
8:00 AM72 °FMild.5 mph70%30.21 "HgN/A
7:00 AM70 °FMild.5 mph74%30.21 "HgN/A
6:00 AM69 °FMild.5 mph74%30.21 "HgN/A
5:00 AM68 °FMild.3 mph75%30.21 "HgN/A
4:00 AM69 °FMild.3 mph74%30.21 "HgN/A
3:00 AM70 °FMild.2 mph72%30.21 "HgN/A
2:00 AM71 °FMild.2 mph74%30.22 "HgN/A
1:00 AM71 °FMild.2 mph74%30.22 "HgN/A
12:00 AM72 °FMild.2 mph74%30.22 "HgN/A
11:00 PM
Jul 23
74 °FMild.2 mph77%30.22 "HgN/A
10:00 PM75 °FMild.3 mph76%30.22 "HgN/A
9:00 PM76 °FMild.5 mph71%30.21 "HgN/A
8:00 PM76 °FMild.6 mph69%30.22 "HgN/A
7:00 PM76 °FMild.7 mph66%30.24 "HgN/A
6:00 PM76 °FMild.6 mph71%30.25 "HgN/A
5:00 PM76 °FMild.5 mph75%30.26 "HgN/A
4:00 PM76 °FMild.3 mph73%30.28 "HgN/A
2:00 PM76 °FMild.3 mph77%30.30 "HgN/A
Weather by CustomWeather, © 2014

See weather overviewHow to use our weather pages